Regional Weather Roundup
Issued by NWS

Home | Current Version | Previous Version | Graphics & Text | Print | Product List | Glossary On
Versions: 1 2 3 4 5 6 7 8 9 10 11 12 13 14 15 16 17 18 19 20 21 22 23 24 25 26 27 28 29 30 31 32 33 34 35 36 37 38 39 40 41 42 43 44 45 46 47 48 49 50
000
ASUS43 KMKX 031621
RWRWI

WISCONSIN REGIONAL WEATHER ROUNDUP
NATIONAL WEATHER SERVICE MILWAUKEE/SULLIVAN WI
1100 AM CDT TUE MAY 03 2016

NOTE: "FAIR" INDICATES FEW OR NO CLOUDS BELOW 12,000 FEET WITH NO
SIGNIFICANT WEATHER AND/OR OBSTRUCTIONS TO VISIBILITY.

WIZ001-002-006>008-014>016-023>028-031700-
NORTHWEST WISCONSIN

CITY           SKY/WX    TMP DP  RH WIND       PRES   REMARKS
SUPERIOR ARPT  CLOUDY    61  36  38 W16       29.73F
ASHLAND        CLOUDY    61  36  39 W8        29.75F
HAYWARD        CLOUDY    63  33  32 W10G21    29.78F
SIREN          CLOUDY    65  33  30 W16G24    29.81F
CUMBERLAND     PTSUNNY   61  36  39 W16G23    29.83F
RICE LAKE      PTSUNNY   63  35  35 W14G20    29.85F
CHETEK         PTSUNNY   64  39  41 NW13G18   29.83F
LADYSMITH      CLOUDY    64  37  36 W14       29.83F
EAU CLAIRE     MOSUNNY   67  38  34 W14G22    29.84F
MENOMONIE      PTSUNNY   68  37  31 SW14G21   29.85F
NEW RICHMOND   PTSUNNY   64  39  39 W16       29.86F
OSCEOLA        MOSUNNY   65  39  39 W13G21    29.88F
$$

WIZ003>005-009-010-017-018-031700-
NORTH CENTRAL WISCONSIN

CITY           SKY/WX    TMP DP  RH WIND       PRES   REMARKS
MANITOWISH WTR CLOUDY    57  36  45 W8        29.76F
ARBOR VITAE    CLOUDY    59  36  41 W12G21    29.77F
WOODRUFF       CLOUDY    59  36  41 W12G21    29.77F
RHINELANDER    CLOUDY    63  33  32 W20G28    29.78F
EAGLE RIVER    CLOUDY    60  31  33 W16G23    29.75F
LAND O LAKES   CLOUDY    59  32  36 W8G17     29.75F
PHILLIPS       CLOUDY    61  37  40 W7G18     29.78F
TOMAHAWK       CLOUDY    63  32  31 W13G20    29.80F
MEDFORD        MOSUNNY   61  39  45 W12G20    29.82F
MERRILL        CLOUDY    64  35  33 W18       29.81F
$$

WIZ029-030-035-036-043>047-031700-
CENTRAL WISCONSIN

CITY           SKY/WX    TMP DP  RH WIND       PRES   REMARKS
WAUSAU         CLOUDY    67  36  31 W14G24    29.81F
MOSINEE        SUNNY     64  36  34 W14G21    29.84F
MARSHFIELD     MOSUNNY   65  37  35 W16       29.84F
STEVENS POINT  SUNNY     62  35  36 W13G20    29.85F
WAUPACA        SUNNY     68  32  26 W15G24    29.85F
WAUTOMA        NOT AVBL
WISC RAPIDS    SUNNY     66  32  28 W14G24    29.87F
CAMP DOUGLAS   MOSUNNY   66  41  39 W13G24    29.88F
$$

WIZ011>013-019>022-031-037>040-048>050-031700-
NORTHEAST WISCONSIN

CITY           SKY/WX    TMP DP  RH WIND       PRES   REMARKS
ANTIGO         CLOUDY    62  36  37 W15       29.81F
SHAWANO        SUNNY     69  32  25 W13G21    29.82F
OCONTO         SUNNY     67  34  29 W16G28    29.79F
STURGEON BAY   SUNNY     64  37  36 SW10G16   29.82F
GREEN BAY      SUNNY     66  39  37 W16       29.83F
MANITOWOC      SUNNY     65  36  34 W14G26    29.84F
APPLETON       MOSUNNY   64  34  32 W14       29.84F
CLINTONVILLE   SUNNY     66  30  26 W15G23    29.82F
OSHKOSH        SUNNY     64  38  38 W14       29.86F
$$

WIZ032>034-041-042-053>061-031700-
SOUTHWEST WISCONSIN

CITY           SKY/WX    TMP DP  RH WIND       PRES   REMARKS
LA CROSSE      SUNNY     67  39  35 W14       29.89F
SPARTA         SUNNY     65  40  39 W10       29.89F
VIROQUA        SUNNY     63  40  42 W13       29.92F
BOSCOBEL       SUNNY     67  38  34 W10       29.93F
PRAIRIE DU CHI SUNNY     65  36  34 W14       29.93F
PLATTEVILLE    SUNNY     63  45  52 W10G18    29.95F
$$

WIZ056-057-062-063-064-067-068-031700-
SOUTH CENTRAL WISCONSIN

CITY           SKY/WX    TMP DP  RH WIND       PRES   REMARKS
REEDSBURG      SUNNY     64  40  41 W9        29.90F
BARABOO/DELLS  MOSUNNY   65  35  33 W15       29.90F
LONE ROCK      SUNNY     65  42  43 W9        29.92F
MINERAL POINT  SUNNY     64  39  39 W15       29.93F
MADISON        MOSUNNY   64  40  41 NW10G17   29.91F
MIDDLETON      SUNNY     64  41  43 W8        29.92F
WATERTOWN      SUNNY     64  40  42 NW9       29.89F
MONROE         SUNNY     61  41  48 W10       29.94F
JANESVILLE     MOSUNNY   66  41  39 NW13      29.92F
$$

WIZ051-052-058>065-066-070>072-031700-
SOUTHEAST WISCONSIN

CITY           SKY/WX    TMP DP  RH WIND       PRES   REMARKS
MILWAUKEE      MOSUNNY   65  36  34 NW12      29.90F
WAUKESHA       SUNNY     61  39  44 NW12      29.91F
MILWAUKEE/TIMM SUNNY     64  36  34 W8G18     29.90F
RACINE         SUNNY     64  39  39 W9        29.92F
BURLINGTON     SUNNY     63  38  38 W13       29.92S
KENOSHA        SUNNY     64  42  44 VRB7      29.91F
FOND DU LAC    SUNNY     66  37  34 W14       29.87F
SHEBOYGAN      SUNNY     66  36  32 W16       29.86F
WEST BEND      SUNNY     63  36  36 W9G18     29.88F
JUNEAU         SUNNY     62  38  40 W9G17     29.90F
$$

LSZ147-162-031700-
LAKE SUPERIOR

STATION/POSITION TIME  TEMP    WIND        PRES    WAVE
                       AIR SEA DIR/SP/G            HT/PER
                 (UTC) (F)     (DEG/KT/KT) (MB)    (FT/S)
W MID LAKE BUOY  1550   43 37  240/ 16/ 17 1005.4F   3/ 5
DEVILS ISLAND    1600   47     230/ 20/ 22 1006.0F
SAXON HARBOR     1500   59     220/  8/ 15 1007.1F
$$

LMZ867-665-643>646-031700-
LAKE MICHIGAN

STATION/POSITION TIME  TEMP    WIND        PRES    WAVE
                       AIR SEA DIR/SP/G            HT/PER
                 (UTC) (F)     (DEG/KT/KT) (MB)    (FT/S)
CHAMBERS ISLAND  1500   55     190/  4/ 11 1009.8F
N MID LAKE BUOY  1550   41 39  190/ 14/ 14 1008.8F   1/ 3
NORTHPORT PIER   1530   55      40/  2/ 11 1008.8F
ALGOMA LAKESHORE 1515          300/  8/ 10   N/A
KEWAUNEE LAKESHO 1600   64     250/  9/ 15 1009.2F
SHEBOYGAN LAKESH 1600   63     260/  8/ 11 1011.3F
PORT WASHINGTON  1540   65     270/ 10/ 13 1012.5F
S MID LAKE BUOY  1550   43 41  190/ 10/ 10 1013.3F   0
KENOSHA   LAKESH 1600   62     260/  8/ 11 1012.9F
$$

TC  - TEMPERATURE IN CELSIUS
VSB - VISIBILITY IN STATUTE MILES
WCI - WIND CHILL INDEX
HX  - HEAT INDEX




USA.gov is the U.S. government's official web portal to all federal, state and local government web resources and services.